Espaço - Ciências - Fenômenos Naturais
Meteógrafos Informações Meteorológicas em tempo real

Aeroporto de Curitiba

Histórico do Tempo
Temperatura atual: 15 graus 59 F    Umidade relativa: 93 %
Velocidade do vento: 05 nós 9 Km/h    Direção: 050 graus NE
Ajuste do altímetro ..: 1013 HPA
Visibilidade: Ótima    Tempo presente: Muitas Nuvens

Observação
Nuvens esparsas a 300 Pés., Céu nublado a 1300 Pés., Céu nublado a 7000 Pés.

Data Hora BRTTempo°CUmidadePressãoVentoVisib.
24/05 - 07:56   Muitas Nuvens 15° 93% 1013 Nordeste/9 km/h OK
24/05 - 06:56   Muitas Nuvens 15° 93% 1013 Norte/10 km/h OK
24/05 - 05:56   Parcialmente Nublado 15° 93% 1012 Norte/9 km/h OK
24/05 - 04:56   Choveu há pouco 15° 93% 1012 Este-nordeste/18 km/h 8000
24/05 - 03:56   Chovendo 16° 93% 1015 Norte/12 km/h 8000
24/05 - 02:56   Chovendo 16° 93% 1015 Norte/0 km/h 4000
24/05 - 01:56   Chovendo 16° 93% 1015 Sul-sudoeste/5 km/h 4000
24/05 - 00:56   Chovendo fraco 16° 93% 1015 Este-nordeste/7 km/h 6000
23/05 - 23:56   Parcialmente Nublado 16° 93% 1016 Este-nordeste/5 km/h 8000
23/05 - 22:56   Chovendo fraco 15° 100% ND Nordeste/7 km/h 4000
23/05 - 21:56   Chovendo 15° 100% 1017 Nordeste/5 km/h 3000
23/05 - 20:56   Chovendo 15° 100% 1017 Norte-nordeste/3 km/h 3000
23/05 - 19:56   Chovendo 15° 100% ND Norte-nordeste/9 km/h 4000
23/05 - 18:56   Chovendo 16° 93% ND Norte-noroeste/10 km/h 5000
23/05 - 17:56   Chovendo fraco 16° 93% 1016 Norte-noroeste/12 km/h 5000
23/05 - 16:56   Chovendo fraco 16° 93% ND Noroeste/12 km/h 5000
23/05 - 15:56   Chovendo fraco ND° ND% 1016 Norte/10 km/h 6000
23/05 - 14:56   Chovendo fraco 17° 93% 1016 Noroeste/5 km/h 3500
23/05 - 13:56   Chovendo fraco 17° 93% 1017 Sul-sudoeste/7 km/h 3500
23/05 - 12:56   Chovendo fraco 17° 93% 1017 Sul/9 km/h 3500
23/05 - 11:56   Chovendo fraco 17° 93% 1019 Noroeste/3 km/h 4000
23/05 - 10:56   Chovendo fraco 17° 100% 1019 Noroeste/9 km/h 4000
23/05 - 09:56   Chovendo fraco 17° 100% 1019 Oeste/9 km/h 4000
23/05 - 08:56   Chovendo 17° 93% 1019 Oeste-noroeste/14 km/h 3000


Apolo11.com - Todos os direitos reservados - 2000 - 2019
Política de Privacidade   |     Termo de Uso e Licenciamento   |  -   Entre em Contato

"Política é a guerra sem sangue enquanto a guerra é a política com sangue" - Mao Tsé-Tung